Location: Krasnoyarskiy Pitomnik
(51.1333°N, 71.6167°E)
Time: 23:42:23
(UTC+00:00)

NOSS 2-2 (C) - Pass Details

Date: 06 June 2022
Orbit: 439 x 1763 km, 63.3° (Epoch: 02 June)

Event Time Altitude Azimuth Distance (km) Brightness Sun altitude
Rises 15:54:34 0° 316° (NW) 2,807 10.2 -4.4°
Reaches altitude 10° 15:56:34 10° 321° (NW) 2,030 8.1 -4.6°
Maximum altitude 16:01:04 55° 40° (NE) 935 4.5 -5.1°
Drops below altitude 10° 16:07:19 10° 118° (ESE) 2,801 6.3 -5.7°
Enters shadow 16:08:44 - 121° (ESE) 3,331 6.7 -5.9°
